Weather History for Paganella, Italy

Change the Weather History Date:

Saturday, February 16, 2013

  Actual Average Record
Temperature  
Mean Temperature 20 °F -  
Max Temperature 23 °F 29 °F 44 °F (1998)
Min Temperature 17 °F 20 °F 6 °F (2005)
Degree Days  
Heating Degree Days 45    
Moisture  
Dew Point 13 °F    
Average Humidity 75    
Maximum Humidity 93    
Minimum Humidity 58    
Precipitation  
Precipitation 0.00 in 0.04 in - ()
Sea Level Pressure  
Sea Level Pressure 29.91 in    
Wind  
Wind Speed 7 mph ()    
Max Wind Speed 13 mph    
Max Gust Speed -    
Visibility 5.8 miles    
Events Snow    
Averages and records for this station are not official NWS values.
T = Trace of Precipitation, MM = Missing Value Source: Averaged Metar Reports

Daily Weather History Graph

Daily Weather History Graph

Search for Another Location

Airport:

Trip Planner

Search our weather history database for the weather conditions in past years. The results will help you decide how hot, cold, wet, or windy it might be!

Date:

Astronomy

Feb. 16, 2013 Rise Set
Actual Time 7:17 AM CET 5:43 PM CET
Civil Twilight 6:46 AM CET 6:14 PM CET
Nautical Twilight 6:11 AM CET 6:49 PM CET
Astronomical Twilight 5:36 AM CET 7:23 PM CET
Moon 9:55 AM CET (2/16) No Moon Set
Length of Visible Light 11h 27m
Length of Day
10h 26m
Waxing Crescent, 37% of the Moon is Illuminated
Feb 16
Waxing Crescent
Feb 17
First Quarter
Feb 25
Full
Mar 4
Last Quarter
Mar 11
New

Hourly Weather History & Observations

Time (CET) Temp. Windchill Dew Point Humidity Pressure Visibility Wind Dir Wind Speed Gust Speed Precip Events Conditions
12:55 AM 21.2 °F 10.1 °F 14.0 °F 74% 29.89 in 6.2 mi NNE 10.4 mph - N/A   Scattered Clouds
1:00 AM 21 °F - 14 °F 63%  in 25 mi NNE 10.4 mph - -   Partly Cloudy
1:55 AM 19.4 °F 9.5 °F 14.0 °F 80% 29.89 in 6.2 mi NNE 8.1 mph - N/A   Partly Cloudy
2:55 AM 19.4 °F 8.6 °F 14.0 °F 80% 29.89 in 6.2 mi NNE 9.2 mph - N/A   Partly Cloudy
3:55 AM 19.4 °F 9.5 °F 14.0 °F 80% 29.89 in 6.2 mi North 8.1 mph - N/A   Partly Cloudy
4:00 AM 20 °F - 13 °F 65%  in 25 mi North 8.1 mph - -   Scattered Clouds
4:55 AM 19.4 °F 7.9 °F 12.2 °F 74% 29.89 in 6.2 mi North 10.4 mph - N/A   Partly Cloudy
5:55 AM 17.6 °F 4.3 °F 12.2 °F 79% 29.89 in 6.2 mi North 12.7 mph - N/A   Partly Cloudy
6:55 AM 17.6 °F 4.3 °F 12.2 °F 79% 29.89 in 6.2 mi North 12.7 mph - N/A   Partly Cloudy
7:00 AM 18 °F - 12 °F 70%  in 31 mi North 12.7 mph - -   Scattered Clouds
7:55 AM 17.6 °F 5.0 °F 12.2 °F 79% 29.89 in - North 11.5 mph - N/A   Clear
8:55 AM 17.6 °F 6.4 °F 12.2 °F 79% 29.92 in - North 9.2 mph - N/A   Clear
9:55 AM 17.6 °F 5.7 °F 12.2 °F 79% 29.92 in - North 10.4 mph - N/A   Clear
10:00 AM 18 °F - 11 °F 65%  in 31 mi North 10.4 mph - -   Mostly Cloudy
10:55 AM 19.4 °F 10.4 °F 12.2 °F 74% 29.95 in - North 6.9 mph - N/A   Clear
11:55 AM 19.4 °F 12.8 °F 12.2 °F 74% 29.95 in 6.2 mi NNW 4.6 mph - N/A   Partly Cloudy
12:55 PM 21.2 °F 16.4 °F 14.0 °F 74% 29.95 in 6.2 mi Variable 3.5 mph - N/A   Partly Cloudy
1:55 PM 21.2 °F 12.6 °F 14.0 °F 74% 29.92 in 6.2 mi WSW 6.9 mph - N/A   Partly Cloudy
2:55 PM 23.0 °F 18.4 °F 14.0 °F 68% 29.92 in 6.2 mi WSW 3.5 mph - N/A   Scattered Clouds
3:55 PM 23.0 °F - 14.0 °F 68% 29.92 in 6.2 mi Calm Calm - N/A Snow Light Snow Showers
4:00 PM 23 °F - 14 °F 58%  in 6 mi Calm Calm - - Snow Light Snow Showers
4:55 PM 21.2 °F - 15.8 °F 80% 29.92 in 6.2 mi Variable 2.3 mph - N/A   Mostly Cloudy
5:55 PM 21.2 °F 16.4 °F 12.2 °F 68% 29.92 in 6.2 mi East 3.5 mph - N/A Snow Light Snow
6:55 PM 21.2 °F - 12.2 °F 68% 29.92 in 5.0 mi Variable 2.3 mph - N/A Snow Light Snow
7:00 PM 21 °F - 13 °F 60%  in 5 mi 2.3 mph - - Snow Light Snow
7:55 PM 19.4 °F 14.3 °F 14.0 °F 80% 29.92 in 5.0 mi NNE 3.5 mph - N/A Snow Light Snow
8:55 PM 19.4 °F 9.5 °F 15.8 °F 86% 29.92 in 5.0 mi NE 8.1 mph - N/A Snow Light Snow
9:55 PM 17.6 °F 7.3 °F 15.8 °F 93% 29.92 in 5.0 mi NNE 8.1 mph - N/A Snow Light Snow
10:00 PM 18 °F - 16 °F 90%  in 5 mi NNE 8.1 mph - - Snow Light Snow
10:55 PM 17.6 °F 7.3 °F 15.8 °F 93% 29.92 in 5.0 mi NNE 8.1 mph - N/A Snow Light Snow
11:55 PM 17.6 °F 7.3 °F 14.0 °F 86% 29.92 in 5.0 mi North 8.1 mph - N/A   Mostly Cloudy